User: anonymous
Location: Moonridge Observatory
(39.2268°N, 77.7914°W)
Time: 18:12:04
(UTC-04:00)
Language:

CZ-2C R/B - Orbit

View from above orbital plane
View from above orbital plane
View from above satellite
View from above satellite

Ground track
Ground track

The orbit data is extracted from the following two-line orbital elements,

1 28480U 04046B   14206.07800368  .00000006  00000-0  16855-4 0  3901
2 28480 098.0948 359.1502 0143933 109.8079 023.9294 14.25315500503489
Epoch (UTC): 25 July 2014 01:52:19
Eccentricity: 0.0143933
inclination: 98.0948°
perigee height: 704 km
apogee height: 911 km
right ascension of ascending node: 359.1502°
argument of perigee: 109.8079°
revolutions per day: 14.25315500
mean anomaly at epoch: 23.9294°
orbit number at epoch: 50348

The dashed part of the orbit path shows where the satellite is in the earth's shadow,  

DLR